JF2ZGN-13 Weather Reports


time (UTC)temp
C
wind
direction
speed
KPH
gust
KPH
rain 1hr
cm
rain 24hr
cm
rain mn
cm
humidity
%
barometer
mb
20260509185150 8 205 6.4 14.5 0.00 0.00 0.00 74 909.3
20260509184149 8 217 6.4 14.5 0.00 0.00 0.00 73 909.3
20260509183149 8 176 8.0 17.7 0.00 0.00 0.00 72 909.1
20260509182148 8 203 9.7 16.1 0.00 0.00 0.00 71 909.0
20260509181148 8 194 9.7 17.7 0.00 0.00 0.00 70 909.1
20260509180148 8 203 8.0 17.7 0.00 0.00 0.00 69 909.0
20260509175147 8 205 8.0 14.5 0.00 0.00 0.00 67 908.9
20260509174146 8 203 8.0 17.7 0.00 0.00 0.00 68 908.9
20260509173146 8 191 8.0 16.1 0.00 0.00 0.00 64 908.9
20260509172145 8 197 8.0 16.1 0.00 0.00 0.00 62 908.9
20260509171145 8 191 6.4 11.3 0.00 0.00 0.00 59 908.9
20260509170145 8 193 6.4 11.3 0.00 0.00 0.00 58 908.9
20260509165144 8 191 8.0 14.5 0.00 0.00 0.00 57 908.9
20260509164144 8 210 8.0 14.5 0.00 0.00 0.00 59 908.8
20260509163143 8 193 8.0 16.1 0.00 0.00 0.00 55 908.8
20260509162143 8 215 8.0 16.1 0.00 0.00 0.00 49 908.9
20260509161143 8 193 8.0 17.7 0.00 0.00 0.00 45 908.9
20260509160142 8 197 8.0 17.7 0.00 0.00 0.00 45 909.0
20260509155142 8 148 9.7 16.1 0.00 0.00 0.00 45 908.8
20260509154141 8 186 8.0 19.3 0.00 0.00 0.00 47 908.8
20260509153141 8 243 8.0 14.5 0.00 0.00 0.00 48 908.9
20260509152141 8 201 8.0 16.1 0.00 0.00 0.00 48 908.8
20260509151140 8 194 9.7 20.9 0.00 0.00 0.00 49 908.8
20260509150139 8 191 9.7 16.1 0.00 0.00 0.00 47 908.9
20260509145139 8 191 11.3 20.9 0.00 0.00 0.00 47 908.9
20260509144138 8 190 11.3 19.3 0.00 0.00 0.00 42 908.9
20260509143138 8 194 11.3 22.5 0.00 0.00 0.00 40 908.7
20260509142137 8 194 11.3 19.3 0.00 0.00 0.00 42 908.8
20260509141137 8 163 11.3 22.5 0.00 0.00 0.00 44 908.7
20260509140138 8 201 11.3 19.3 0.00 0.00 0.00 44 908.6
20260509135136 8 193 11.3 19.3 0.00 0.00 0.00 43 908.5
20260509134135 8 198 11.3 20.9 0.00 0.00 0.00 43 908.5
20260509133135 8 187 11.3 19.3 0.00 0.00 0.00 46 908.5
20260509132135 9 204 11.3 17.7 0.00 0.00 0.00 43 908.5
20260509131134 9 193 9.7 20.9 0.00 0.00 0.00 44 908.5
20260509130134 9 203 11.3 17.7 0.00 0.00 0.00 43 908.4
20260509125133 9 207 11.3 19.3 0.00 0.00 0.00 42 908.5
20260509124133 9 201 11.3 20.9 0.00 0.00 0.00 41 908.5
20260509123133 9 195 11.3 19.3 0.00 0.00 0.00 41 908.5
20260509122132 9 200 9.7 22.5 0.00 0.00 0.00 42 908.4
20260509121131 9 198 11.3 17.7 0.00 0.00 0.00 40 908.4
20260509120132 9 188 11.3 17.7 0.00 0.00 0.00 40 908.4
20260509115131 9 200 11.3 20.9 0.00 0.00 0.00 39 908.4
20260509114130 9 197 11.3 17.7 0.00 0.00 0.00 39 908.4
20260509113130 9 188 11.3 19.3 0.00 0.00 0.00 40 908.3
20260509112130 10 204 11.3 17.7 0.00 0.00 0.00 34 908.2
20260509111129 10 204 11.3 17.7 0.00 0.00 0.00 29 908.3
20260509110128 9 195 9.7 16.1 0.00 0.00 0.00 31 908.1
20260509105128 10 186 9.7 16.1 0.00 0.00 0.00 31 908.2
20260509104127 9 191 9.7 16.1 0.00 0.00 0.00 31 908.1
20260509103127 10 212 9.7 17.7 0.00 0.00 0.00 28 908.0
20260509102127 9 204 11.3 22.5 0.00 0.00 0.00 32 908.0
20260509101126 9 221 9.7 19.3 0.00 0.00 0.00 37 907.8
20260509100126 10 231 9.7 14.5 0.00 0.00 0.00 39 907.7
20260509095126 10 190 8.0 16.1 0.00 0.00 0.00 40 907.6
20260509094125 10 204 9.7 17.7 0.00 0.00 0.00 39 907.7
20260509093124 10 191 8.0 14.5 0.00 0.00 0.00 36 907.6
20260509092123 10 197 9.7 17.7 0.00 0.00 0.00 30 907.5
20260509091123 10 221 9.7 14.5 0.00 0.00 0.00 32 907.6
20260509090123 11 211 8.0 16.1 0.00 0.00 0.00 35 907.5
20260509085122 11 211 6.4 11.3 0.00 0.00 0.00 35 907.4
20260509084122 11 198 6.4 12.9 0.00 0.00 0.00 37 907.3
20260509083121 12 184 4.8 11.3 0.00 0.00 0.00 36 907.2
20260509082121 12 205 4.8 9.7 0.00 0.00 0.00 33 907.2
20260509081120 12 242 4.8 9.7 0.00 0.00 0.00 32 907.1
20260509080120 13 210 3.2 9.7 0.00 0.00 0.00 28 907.0
20260509075119 13 198 6.4 14.5 0.00 0.00 0.00 28 906.9
20260509074119 13 200 6.4 12.9 0.00 0.00 0.00 27 906.9
20260509073119 13 201 4.8 12.9 0.00 0.00 0.00 29 906.6
20260509072118 13 197 6.4 14.5 0.00 0.00 0.00 29 906.5
20260509071117 13 204 4.8 14.5 0.00 0.00 0.00 31 906.5
20260509070117 13 203 6.4 14.5 0.00 0.00 0.00 34 906.3
20260509065117 13 153 4.8 8.0 0.00 0.00 0.00 35 906.1
20260509063116 13 229 4.8 11.3 0.00 0.00 0.00 32 905.9
20260509062116 13 197 4.8 11.3 0.00 0.00 0.00 35 905.8
20260509061115 13 174 3.2 11.3 0.00 0.00 0.00 35 905.8
20260509060114 14 150 4.8 14.5 0.00 0.00 0.00 34 905.7
20260509055115 15 110 3.2 6.4 0.00 0.00 0.00 34 905.8
20260509054114 15 208 4.8 12.9 0.00 0.00 0.00 34 905.8
20260509053113 15 132 3.2 9.7 0.00 0.00 0.00 37 905.5
20260509052113 15 242 4.8 11.3 0.00 0.00 0.00 40 905.5
20260509051112 15 153 3.2 11.3 0.00 0.00 0.00 39 905.5
20260509050111 16 104 3.2 11.3 0.00 0.00 0.00 36 905.5
20260509045112 15 219 3.2 11.3 0.00 0.00 0.00 40 905.5
20260509044111 16 124 4.8 9.7 0.00 0.00 0.00 39 905.3
20260509043110 16 100 3.2 12.9 0.00 0.00 0.00 37 905.4
20260509042110 16 203 3.2 8.0 0.00 0.00 0.00 39 905.3
20260509041110 16 200 4.8 12.9 0.00 0.00 0.00 37 905.3
20260509040109 16 207 3.2 11.3 0.00 0.00 0.00 39 905.1
20260509035109 16 136 3.2 6.4 0.00 0.00 0.00 35 905.2
20260509034107 17 118 3.2 8.0 0.00 0.00 0.00 36 905.2
20260509033107 17 138 1.6 8.0 0.00 0.00 0.00 38 905.1
20260509032106 17 98 1.6 8.0 0.00 0.00 0.00 40 905.0
20260509031106 16 291 1.6 6.4 0.00 0.00 0.00 39 905.0
20260509030105 16 288 3.2 6.4 0.00 0.00 0.00 40 904.9
20260509025105 16 260 3.2 9.7 0.00 0.00 0.00 38 904.7
20260509024105 16 176 1.6 4.8 0.00 0.00 0.00 41 904.7
20260509023104 17 269 1.6 4.8 0.00 0.00 0.00 40 904.7
20260509022104 16 24 1.6 6.4 0.00 0.00 0.00 43 904.7
20260509021103 16 288 1.6 8.0 0.00 0.00 0.00 41 904.7
20260509020104 16 253 0.0 3.2 0.00 0.00 0.00 48 904.6
20260509015102 15 14 3.2 8.0 0.00 0.00 0.00 41 904.4
20260509014102 15 291 1.6 6.4 0.00 0.00 0.00 46 904.3
20260509013101 15 37 1.6 4.8 0.00 0.00 0.00 47 904.3
20260509012101 15 302 1.6 3.2 0.00 0.00 0.00 45 904.2
20260509011101 15 105 1.6 6.4 0.00 0.00 0.00 44 904.0
20260509010100 15 232 1.6 6.4 0.00 0.00 0.00 43 903.9
20260509005100 15 318 1.6 6.4 0.00 0.00 0.00 43 903.8
20260509004059 15 107 3.2 8.0 0.00 0.00 0.00 42 903.6
20260509003059 14 260 1.6 4.8 0.00 0.00 0.00 45 903.2
20260509002058 14 249 1.6 4.8 0.00 0.00 0.00 42 903.0
20260509001058 14 83 1.6 6.4 0.00 0.00 0.00 46 902.9
20260509000057 14 338 1.6 6.4 0.00 0.00 0.00 42 902.7
20260508235057 14 158 1.6 4.8 0.00 0.00 0.00 44 902.5
20260508234056 13 101 3.2 11.3 0.00 0.00 0.00 44 902.3
20260508233056 13 201 3.2 12.9 0.00 0.00 0.00 44 902.1
20260508232055 13 94 3.2 9.7 0.00 0.00 0.00 43 902.1
20260508231055 13 218 1.6 4.8 0.00 0.00 0.00 43 902.0
20260508230055 12 297 0.0 4.8 0.00 0.00 0.00 44 901.7
20260508225054 12 195 1.6 4.8 0.00 0.00 0.00 43 901.7
20260508224054 12 315 1.6 4.8 0.00 0.00 0.00 43 901.4
20260508223053 11 128 1.6 4.8 0.00 0.00 0.00 42 901.4
20260508222053 11 315 0.0 1.6 0.00 0.00 0.00 37 901.2
20260508221053 10 136 0.0 4.8 0.00 0.00 0.00 33 901.0
20260508220052 9 308 1.6 3.2 0.00 0.00 0.00 27 900.9
20260508215051 8 332 1.6 3.2 0.00 0.00 0.00 29 900.7
20260508214051 8 288 3.2 4.8 0.00 0.00 0.00 25 900.5
20260508213050 8 271 4.8 8.0 0.00 0.00 0.00 26 900.5
20260508212050 8 326 3.2 8.0 0.00 0.00 0.00 25 900.3
20260508211050 8 7 3.2 9.7 0.00 0.00 0.00 26 900.2
20260508210049 8 312 3.2 8.0 0.00 0.00 0.00 25 900.1
20260508205049 8 336 4.8 9.7 0.00 0.00 0.00 26 899.7
20260508204048 8 278 8.0 14.5 0.00 0.00 0.00 26 899.5
20260508203048 8 305 6.4 12.9 0.00 0.00 0.00 21 899.3
20260508202047 8 259 8.0 16.1 0.00 0.00 0.00 18 899.1
20260508201047 8 283 9.7 17.7 0.00 0.00 0.00 17 898.9
20260508200046 8 273 11.3 17.7 0.00 0.00 0.00 17 898.7
20260508195047 8 242 11.3 20.9 0.00 0.00 0.00 16 898.6
20260508194046 8 280 11.3 24.1 0.00 0.00 0.00 14 898.2
20260508193045 8 281 16.1 30.6 0.00 0.00 0.00 12 898.1
20260508192045 8 280 14.5 27.4 0.00 0.00 0.00 10 897.8
20260508191044 8 264 17.7 37.0 0.00 0.00 0.00 8 897.5
20260508190044 8 264 20.9 40.2 0.00 0.00 0.00 7 897.3